{"data":{"norad_id":50474,"intl_designator":"2021-132F","name":"ONEWEB-0394","alt_names":[],"object_type":"PAYLOAD","status":"ACTIVE","operator":null,"country":"UK","launch_date":"2021-12-27","launch_site_code":"TYMSC","launch_vehicle":null,"mission":null,"orbit_class":"UNKNOWN","rcs_meters":null,"size_class":null,"mass_kg":null,"dimensions":null,"purposes":["comms"],"wikipedia_slug":null,"has_3d_model":false,"image_url":null,"decayed_at":null,"tle_current":{"epoch":"2026-09-19T22:39:00.705024Z","epoch_age_seconds":70110,"freshness":"FRESH","line1":"1 50474U 21132F   26262.94375816  .00000033  00000+0  50047-4 0  9995","line2":"2 50474  87.9166 316.6176 0002110  97.4974 262.6398 13.18686211234083","mean_motion":13.18686211,"eccentricity":0.000211,"inclination_deg":87.9166,"raan_deg":316.6176,"arg_perigee_deg":97.4974,"mean_anomaly_deg":262.6398,"bstar":5.0047e-5,"rev_number":23408,"period_min":109.19959486859,"perigee_km":1188.1454970509,"apogee_km":1191.3391421238,"semimajor_km":7567.8793195874,"source":"CELESTRAK","updated_at":"2026-09-20T09:00:44.677679Z"}}}